DMSP 5D-2 F13 DEB, 40499

Orbit data source: Space-Track

DMSP 5D-2 F13 DEB, 40499 is space debris in SSO originally from a launch on Fri, 24 Mar 1995 UTC launched from the Air Force Western Test Range (AFWTR). Debris objects in space refer to the collection of defunct objects orbiting the Earth. Examples of debris include non-operational satellites, rocket bodies, and fragments generated from explosions, collisions, or faulty payload assembly.

Loading next visibility...
Identifier
40499, 1995-015CN
Orbit
SSO
Country
Flag of USUS
Related business
Manufacturer
Unknown
Mission
Spacecraft
Bus & Motor
Unknown
Mass
Unknown
Launch date (UTC)
1995-03-24 (31 years ago)
Launch vehicle
Unknown
Launch site
Air Force Western Test Range (AFWTR)
Object type
Payload
Rocket body
Debris
Shape & HBR
Unknown shape, 0.1 m
Radar Cross Section
Small (<0.1 m²)

Expand to show TLE details & history
Last TLE update: 1 day ago

TLE from 1 day ago
0 DMSP 5D-2 F13 DEB
1 40499U 95015CN  25341.32478683  .00008562  00000-0  28079-2 0  9991
2 40499  98.6997  12.6609 0008367  94.7428 265.4715 14.38588838557607
Epoch: 2025-12-07T07:47Z
TLE epoch observation values (Epoch: 2025-12-07T07:47:41.582Z)
Latitude
0.00005°
Longitude
179.39783°
Altitude
766.582 km
Speed
7.471 km/s
True Right ascension
00h 50m 38s
True Declination
0° 00' 00"
Sunlit
Object was in daylight at epoch
Visualization orbit readout
Latitude
Unknown
Longitude
Unknown
Altitude
Unknown
Speed
Unknown
Apparent Right ascension
Unknown
Apparent Declination
Unknown
Sunlit
N/A
Visualization observer readout
Local Sidereal Time
17:48:55
Azimuth
Unknown
Elevation
Unknown
Doppler factor
Unknown
Orbital elements
Apogee altitude
766.271 km
Perigee altitude
754.325 km
Semi-major axis
7,138.435 km
Eccentricity
0.00084
Inclination
98.6997°
RAAN
12.6609°
Arg. of periapsis
94.7428°
True anomaly
265.37593°
Mean anomaly
265.4715°
Eccentric anomaly
265.42371°
Mean motion
3.59864 °/min
Orbital period
100.04 mins
BSTAR
0.0028079
Loading maneuver chart data...
Computing Atmospheric mass density...

Documentation

Showing up to 5 results
|